Regional Weather Roundup
Issued by NWS Cleveland, OH

Home | Current Version | Previous Version | Graphics & Text | Print | Product List | Glossary On
Versions: 1 2 3 4 5 6 7 8 9 10 11 12 13 14 15 16 17 18 19 20 21 22 23 24 25 26 27 28 29 30 31 32 33 34 35 36 37 38 39 40 41 42 43 44 45 46 47 48 49 50
526
ASUS41 KCLE 011210
RWRCLE
OHIO REGIONAL WEATHER ROUNDUP
NATIONAL WEATHER SERVICE CLEVELAND, OH
800 AM EDT SUN MAY 01 2016

NOTE: "FAIR" INDICATES FEW OR NO CLOUDS BELOW 12,000 FEET WITH NO
SIGNIFICANT WEATHER AND/OR OBSTRUCTIONS TO VISIBILITY.

OHZ001>008-015>018-024>027-034-035-043-044-011300-
   NORTHWEST OHIO

CITY           SKY/WX    TMP DP  RH WIND       PRES   REMARKS
DEFIANCE       CLOUDY    51  48  89 NE5       29.93R
FINDLAY        FOG       52  48  86 NE3       29.90S VSB 1/4
TOLEDO EXPRESS CLOUDY    48  48 100 E5        29.93R FOG
TOLEDO EXEC    FOG       50  48  93 E6        29.93R VSB 1/4
LIMA           FOG       53  52  96 CALM      29.91R VSB 1/4
$$

OHZ009>014-019>023-028>033-038-089-011300-
   NORTHEAST OHIO

CITY           SKY/WX    TMP DP  RH WIND       PRES   REMARKS
CLE-HOPKINS    LGT RAIN  55  54  96 CALM      29.92S FOG
CLE-LAKEFRONT  CLOUDY    51  50  96 CALM      29.90R FOG
CUY CO. ARPT     N/A     59  55  88 NW8       29.91R
LORAIN-ELYRIA  FOG       53  51  93 CALM      29.92R VSB 1
ASHTABULA      CLOUDY    55  55 100 CALM      29.91R FOG
AKRON-CANTON   CLOUDY    59  58  96 SW9       29.92R FOG
WOOSTER        CLOUDY    58  58 100 SW8       29.92R FOG
MANSFIELD      CLOUDY    59  59 100 SW8       29.92R FOG
YOUNGSTOWN     CLOUDY    58  56  93 S6        29.91R FOG
$$

OHZ042-051>053-060>062-070>072-077>081-011300-
  SOUTHWEST OHIO

CITY           SKY/WX    TMP DP  RH WIND       PRES   REMARKS
CINC-COVINGTON CLOUDY    62  61  96 SW6       29.92R
CINC-LUNKEN    CLOUDY    63  63 100 SW5       29.92S
HAMILTON       CLOUDY    62  61  96 CALM      29.92R FOG
DAYTON         DRIZZLE   61  60  97 SW5       29.93S
WRIGHT-PAT AFB CLOUDY    63  63 100 CALM      29.92R
DAYTON GENERAL PTSUNNY   62  59  90 CALM      29.91R FOG
WILMINGTON     CLOUDY    61  60  97 S5        29.92S FOG
$$

OHZ036-037-039>041-045>050-054>059-063>069-073>076-082>088-011300-
  CENTRAL AND SOUTHEAST OHIO

CITY           SKY/WX    TMP DP  RH WIND       PRES   REMARKS
COLUMBUS       CLOUDY    57  57 100 SW8       29.94R
OSU AIRPORT    CLOUDY    60  59  96 SW3       29.93R FOG
BOLTON FIELD   PTSUNNY   61  61 100 SW3       29.94R FOG
RICKENBACK AFB CLOUDY    59  59  99 S6        29.93S FOG
NEWARK         CLOUDY    63  58  83 S7        29.93R
MARION         CLOUDY    59  58  96 SW6       29.93R FOG
LANCASTER      CLOUDY    62  59  90 S3        29.94S
ZANESVILLE     CLOUDY    63  59  87 S8        29.95R
NEW PHILLY     CLOUDY    61  59  93 SW6       29.94R FOG
$$




USA.gov is the U.S. government's official web portal to all federal, state and local government web resources and services.